Location: Koszewko
(53.2876°N, 14.9061°E)
Time: 22:40:41
(UTC+00:00)

ATLAS CENTAUR R/B - Pass Details

Date: 03 March 2021
Orbit: 475 x 670 km, 64.7° (Epoch: 30 March)

Event Time Altitude Azimuth Distance (km) Brightness Sun altitude
Rises 19:59:33 0° 252° (WSW) 2,522 5.2 -29.1°
Reaches altitude 10° 20:01:48 10° 262° (W) 1,651 4.3 -29.4°
Enters shadow 20:03:16 20° 277° (W) 1,158 3.5 -29.6°
